SCP
0 0 0 0 0 -0 0 0 0 0 0 0 0 0 0 0 0 0 0 0 0 0 0 0 -0 0 0 0 0 0 0 0 0 0 0 0 0 0 0 0 0 0 0 -0
0 0 0 0 0 0 0 0 0 0 0 0 0 0 0 0 0 0 0 0 0 0 0 0 0 0 0 0 0 0 0 0 0 0 0 0 0 0 0 0 0 0 0 -0
0 0 0 0 0 0 0 0 0 0 0 0 0 0 0 0 0 0 0 0 0 0 0 0 0 0 0 0 0 0 0 0 0 0 0 0 0 0 0 0 0 0 -0 -0
0 0 0 0 0 0 0 0 0 0 0 0 0 0 0 0 0 0 0 0 0 0 0 0 0 0 0 0 0 0 0 0 0 0 0 0 0 0 0 0 -0 -0 -0 -0
0 0 0 0 0 0 0 0 0 0 0 0 0 0 0 0 0 0 0 0 0 0 0 0 0 0 0 0 0 0 0 0 0 0 0 0 0 0 0 -0 -0 -0 -0 -0
0 0 0 0 0 0 0 0 0 0 0 0 0 0 0 0 0 0 0 0 0 0 0 0 0 0 0 0 0 0 0 0 0 0 0 0 0 0 0 0 0 0 -0 -0
0 0 0 0 0 0 0 0 0 0 0 0 0 0 0 0 0 0 0 0 0 0 0 0 0 0 0 0 0 0 0 0 0 0 0 0 0 0 0 0 0 -0 -0 0
0 0 0 0 0 0 0 0 0 0 0 0 0 0 0 0 0 0 0 0 0 0 0 0 0 0 0 -0 0 0 0 0 0 0 0 -0 -0 0 0 0 -0 0 0 0
0 0 0 0 0 0 0 0 0 0 0 0 0 0 0 0 0 0 0 0 0 0 0 0 0 0 0 0 0 0 -0 0 0 0 0 0 0 0 0 -0 -0 0 0 -0
0 0 0 0 0 0 0 0 0 0 0 0 0 0 0 0 0 0 0 0 0 0 0 0 0 0 0 0 -0 0 0 0 -0 -0 0 0 0 0 -0 -0 0 -0 0 -0
0 0 0 0 0 0 0 0 0 0 0 0 0 0 0 0 0 0 0 0 0 0 0 0 0 0 0 0 0 0 0 0 0 0 0 0 0 0 0 0 0 0 -0 0
0 0 0 0 0 0 0 0 0 0 0 0 0 0 0 0 0 0 0 0 0 0 0 0 0 0 0 0 0 0 0 0 0 0 0 0 0 -0 0 0 0 0 0 0
0 0 0 0 0 0 0 0 0 0 0 0 0 0 0 0 0 0 0 0 0 0 0 0 0 0 0 0 0 0 0 0 0 0 0 -0 -0 0 0 0 0 0 0 0
0 0 0 0 -0 0 0 0 0 0 0 0 0 0 0 0 0 0 0 0 0 0 0 0 0 0 0 0 0 0 0 0 0 0 0 -0 0 -0 0 0 0 0 0 0
0 0 0 0 -0 0 0 0 0 0 0 0 0 0 0 0 0 0 0 0 0 0 0 0 0 0 0 0 0 0 0 0 0 0 0 0 -0 -0 0 0 0 0 -0 -0
0 0 0 -0 -0 0 0 0 0 0 0 0 0 0 0 0 0 0 0 0 0 0 0 0 0 0 0 0 0 0 0 0 0 0 -0 -0 -0 0 -0 0 0 0 0 0
0 0 0 0 0 0 0 0 0 0 0 0 0 0 0 0 0 0 0 0 0 0 0 0 0 0 0 0 0 0 0 0 0 0 0 -0 -0 -0 -0 0 0 0 0 0
0 0 0 0 0 0 0 0 0 0 0 0 0 0 0 0 0 0 0 0 0 0 0 -0 -0 0 0 0 0 0 0 0 0 0 -0 -0 -0 -0 0 0 0 0 0 0
0 0 0 0 0 0 0 0 0 0 0 0 0 0 0 0 0 0 0 0 0 0 -0 0 0 0 0 0 0 0 0 0 0 0 -0 -0 -0 -0 0 0 -0 0 -0 -0
0 0 0 0 0 0 0 0 0 0 0 0 0 0 0 0 0 0 0 0 0 0 -0 0 0 0 0 0 0 0 0 0 0 0 -0 -0 -0 -0 -0 -0 -0 -0 -0 0
0 0 0 0 0 0 0 0 0 0 0 0 0 -0 -0 0 0 0 0 0 0 0 0 -0 0 0 0 -0 0 0 0 0 0 0 -0 -0 0 0 0 0 -0 -0 -0 -0
0 0 0 0 0 0 0 0 0 0 0 0 0 0 0 0 0 0 0 0 0 0 0 0 0 0 0 0 0 0 0 0 0 0 -0 -0 0 0 0 0 -0 -0 -0 -0
0 0 0 0 0 0 0 -0 0 -0 0 0 0 0 0 0 0 0 0 0 0 0 -0 -0 0 0 0 0 0 0 0 0 0 0 -0 -0 -0 -0 -0 0 -0 -0 -0 -0
0 0 0 0 0 0 -0 0 0 0 0 -0 -0 -0 0 0 0 0 0 0 0 -0 -0 0 0 0 0 0 0 0 0 0 0 0 0 -0 0 -0 -0 0 0 0 -0 -0
0 0 0 0 0 0 0 0 0 0 0 0 0 -0 0 0 0 0 0 0 -0 -0 0 0 0 0 0 0 0 0 0 0 0 0 0 0 0 -0 -0 0 0 0 0 -0
0 0 0 0 0 -0 -0 -0 -0 0 0 0 0 0 0 0 0 0 -0 0 0 0 0 0 -0 -0 -0 0 0 0 0 0 0 0 0 0 -0 -0 -0 0 -0 -0 0 -0
0 0 0 0 0 -0 0 -0 0 0 0 0 0 0 0 0 0 0 0 0 0 0 -0 -0 -0 -0 -0 -0 0 0 0 0 0 0 0 -0 -0 -0 -0 -0 -0 -0 -0 0
Wind_Speed_500mb
32 36 38 39 43 43 27 9 8 9 6 22 8 12 11 7 18 10 17 15 22 25 28 29 32 22 16 5 13 14 13 12 21 32 26 4 23 27 27 20 18 19 22 32
32 33 31 36 36 43 42 17 12 9 6 11 9 9 14 11 17 13 8 14 16 23 26 21 19 28 5 10 8 6 3 10 16 22 30 11 16 18 17 25 25 30 27 30
31 31 30 28 29 34 24 12 7 5 2 3 15 15 16 10 3 18 15 17 23 25 26 27 16 10 9 7 15 10 8 20 22 24 29 14 21 22 23 27 20 31 34 46
27 25 23 26 26 25 16 5 7 8 6 7 14 12 18 19 12 6 11 10 9 13 12 22 25 24 15 14 21 16 16 25 26 34 39 37 34 33 34 36 38 37 42 49
26 25 22 19 22 17 7 17 11 7 18 9 14 6 6 13 6 8 11 16 18 18 12 23 31 25 24 15 12 21 13 16 23 30 34 32 36 36 37 37 37 44 41 44
24 23 22 19 15 13 10 8 7 12 3 7 10 6 5 7 13 15 23 20 17 22 22 26 32 31 31 27 23 19 14 12 19 25 28 20 26 22 18 16 21 28 31 40
22 25 22 20 13 10 7 11 14 6 12 6 8 15 17 16 15 21 27 27 24 15 24 32 40 40 38 38 36 39 24 25 20 17 26 32 5 9 9 12 22 32 39 36
27 25 27 22 16 14 7 12 10 7 11 19 21 10 14 22 15 21 25 20 7 14 11 8 17 15 20 30 39 35 29 26 10 9 17 31 18 10 15 23 34 28 28 38
28 29 34 27 19 14 11 10 7 8 5 3 14 17 14 14 11 16 11 9 15 10 4 5 9 4 7 8 9 17 22 25 16 17 7 14 11 11 17 25 25 29 39 43
36 41 43 29 21 16 16 11 15 9 7 19 10 7 10 10 9 10 18 10 4 7 4 5 10 8 5 9 11 13 15 16 24 21 13 14 15 19 28 21 23 57 59 60
34 30 24 24 24 19 23 17 18 12 12 30 24 24 20 17 12 6 9 15 2 7 5 8 5 6 2 4 5 10 15 12 13 14 7 10 22 23 15 24 45 52 56 58
26 20 20 19 21 20 26 24 15 18 24 19 22 32 35 29 25 10 6 8 4 1 5 6 6 6 6 7 5 6 6 3 4 3 5 11 18 22 18 31 43 46 55 63
20 19 21 23 23 24 29 28 19 18 13 35 16 17 19 24 36 32 12 11 14 7 7 7 6 7 7 4 8 9 5 2 8 9 2 22 30 20 37 43 45 50 53 62
24 22 24 32 29 27 34 32 18 15 7 4 5 3 6 16 23 26 28 13 14 6 8 10 7 7 10 5 8 11 3 5 7 11 14 26 9 44 43 43 46 52 55 62
27 27 23 21 28 31 39 37 19 16 11 6 20 40 23 33 25 29 29 35 18 8 8 9 8 9 7 14 14 15 3 5 3 4 18 19 34 40 38 45 50 54 59 66
27 26 21 20 22 28 40 12 22 31 21 4 7 4 10 14 10 20 27 35 23 11 8 11 12 3 8 5 6 9 13 5 5 13 25 25 31 32 39 44 48 49 55 59
23 21 15 17 22 32 31 10 8 10 18 5 9 5 9 4 7 18 18 22 15 14 9 11 16 10 11 7 10 10 9 2 9 16 19 27 30 39 40 40 41 45 48 53
19 18 18 25 36 43 28 18 8 20 10 7 6 7 9 14 9 9 18 14 18 19 9 11 18 11 14 7 11 12 2 8 11 17 22 23 29 31 36 38 41 46 51 57
21 24 25 40 28 16 15 13 12 11 11 5 7 6 1 7 5 9 20 18 9 8 7 8 10 11 9 1 12 8 8 12 17 19 18 24 28 32 36 39 41 44 52 55
17 35 12 10 12 15 25 14 11 10 9 11 9 16 8 7 3 11 8 8 4 5 13 12 8 6 15 12 9 5 7 11 14 17 24 30 33 35 38 39 39 40 46 50
40 15 8 15 27 16 8 7 9 11 8 13 14 22 12 8 5 3 8 4 6 6 9 8 5 7 11 11 8 6 6 8 11 15 19 25 28 30 34 37 36 39 43 48
21 14 25 24 10 7 6 7 10 8 7 13 7 8 10 4 5 6 5 5 7 7 11 7 5 8 17 15 9 8 8 8 12 16 21 25 25 26 29 32 35 38 40 44
18 7 10 9 10 9 10 14 9 8 11 10 8 5 9 10 12 6 7 10 7 7 4 4 6 24 17 13 12 11 9 9 12 16 20 24 25 27 30 31 35 35 39 44
7 9 8 8 9 10 10 9 2 4 11 14 15 7 8 13 11 9 7 5 8 7 7 7 13 23 20 16 13 9 10 11 14 16 19 23 26 28 30 32 33 36 43 46
5 7 8 13 13 4 3 7 7 6 4 5 8 9 14 8 6 7 7 8 8 4 6 8 25 25 22 18 13 12 11 13 15 17 19 22 24 26 29 32 32 34 38 43
6 10 8 9 9 8 14 16 9 10 3 7 10 5 6 11 6 10 12 4 2 6 8 25 25 25 22 17 14 14 13 14 15 17 19 20 23 25 26 28 33 36 36 40
8 9 19 15 5 5 5 7 6 17 10 4 7 9 6 4 5 5 2 5 11 30 29 30 27 24 21 19 17 14 14 14 15 16 18 19 20 21 26 31 33 34 38 37
Wind_Direction_500mb
333 341 344 345 345 347 4 298 264 351 346 250 225 289 31 22 288 292 312 293 293 290 284 281 274 258 221 141 306 280 287 278 260 259 265 323 290 299 297 271 247 244 268 273
326 331 340 345 349 353 353 307 292 327 306 281 295 85 292 258 292 316 306 290 287 295 294 288 284 272 267 273 273 305 317 251 271 267 226 177 256 250 247 267 271 257 269 277
317 323 331 337 343 347 346 300 282 139 353 23 319 333 286 286 132 292 306 288 297 292 277 264 263 268 179 230 264 60 314 270 269 276 300 280 278 261 257 270 255 267 268 281
314 319 322 326 332 344 345 313 77 343 322 76 329 305 302 288 333 287 301 281 323 331 278 306 258 264 242 235 236 245 245 265 272 274 282 287 284 275 272 263 265 268 278 282
312 320 309 312 321 330 312 326 342 316 283 299 297 168 31 313 297 309 309 293 348 313 292 298 300 316 311 257 283 250 229 266 267 265 264 274 266 267 263 264 267 271 292 306
311 313 305 300 317 343 322 324 293 290 215 220 264 5 284 293 270 279 259 284 321 291 312 308 299 289 266 269 285 286 280 263 274 278 294 289 266 266 279 266 314 312 298 308
292 302 300 298 288 300 296 306 302 320 274 251 302 295 295 301 294 280 287 281 283 296 313 302 277 252 250 250 249 249 259 269 284 281 298 267 348 90 353 323 312 313 308 324
273 292 290 285 281 269 262 292 293 299 285 324 297 263 279 303 281 265 280 287 309 314 309 287 265 229 233 230 224 229 229 250 257 240 264 298 231 55 15 340 311 326 354 330
267 288 280 269 266 274 237 254 264 270 280 252 351 313 310 294 312 295 264 269 291 231 299 263 264 261 227 169 166 234 230 226 234 277 247 282 75 63 351 324 290 353 334 330
282 279 272 261 256 253 241 245 234 230 246 290 298 248 291 299 294 274 291 317 295 195 253 252 263 255 228 181 191 185 184 207 222 237 251 271 44 354 320 286 337 337 335 327
287 275 243 241 243 249 241 226 260 231 232 275 274 260 246 262 255 266 357 280 274 182 234 253 286 266 223 288 211 180 190 204 206 240 243 260 15 345 359 335 329 325 324 320
275 261 242 230 234 251 240 249 247 257 238 259 275 266 254 239 239 240 221 309 274 248 275 271 259 274 220 245 257 260 241 267 257 279 244 304 350 347 344 345 329 325 321 318
252 263 260 245 245 254 239 240 254 264 273 299 260 289 256 232 216 234 208 228 232 213 231 290 286 275 274 249 262 260 182 241 253 314 314 353 337 8 351 336 326 323 324 321
243 260 264 254 252 248 249 236 249 236 256 288 295 74 172 194 200 214 233 242 207 231 257 249 255 268 285 253 268 275 185 184 284 299 327 327 329 345 333 328 326 326 327 324
253 260 276 256 223 231 238 230 243 244 238 287 297 291 279 241 251 230 215 221 238 259 272 244 245 260 270 265 272 273 66 316 306 278 347 338 317 322 326 327 329 330 329 330
254 261 275 241 242 217 209 212 255 243 233 277 291 23 241 172 218 220 208 218 222 215 239 275 267 225 274 279 268 264 80 31 310 317 322 319 312 319 329 329 332 331 334 336
252 256 249 239 204 203 185 191 171 149 190 238 274 267 153 263 204 185 202 202 203 208 256 259 267 242 230 276 249 106 117 347 328 310 319 320 333 329 333 336 335 337 337 340
232 235 231 218 201 196 202 224 237 159 190 235 267 273 205 175 174 169 186 181 205 210 230 245 251 228 227 245 143 120 49 345 325 338 327 323 331 336 341 342 345 343 343 344
227 235 206 186 183 189 215 206 199 210 191 236 230 249 84 183 220 209 185 199 207 189 231 251 252 229 213 109 118 103 31 345 342 335 340 348 347 347 348 348 349 345 343 348
222 182 145 158 177 166 131 143 163 205 224 226 249 232 247 157 205 203 177 172 197 227 220 219 226 231 124 111 94 64 357 355 359 1 360 356 353 352 351 351 350 348 347 350
175 162 142 131 137 140 169 167 207 180 228 216 230 233 228 160 219 219 214 207 217 236 189 212 230 159 119 147 122 80 41 37 27 11 360 357 353 353 351 353 354 354 353 355
184 172 131 144 167 170 201 209 167 224 244 181 215 197 201 222 206 225 233 249 233 245 174 211 194 122 140 139 120 96 83 56 31 18 9 5 5 3 0 359 358 359 358 359
181 165 142 160 172 200 221 193 187 205 197 147 167 163 169 201 200 220 232 231 223 159 208 209 87 141 140 142 134 112 84 59 40 33 25 23 21 18 15 11 7 6 7 5
184 160 164 227 184 230 210 215 275 101 121 154 169 170 191 200 189 235 234 226 213 223 221 126 118 127 139 130 126 110 78 62 53 44 34 29 28 26 24 24 17 16 14 13
182 206 221 212 228 104 88 225 192 163 147 164 178 212 192 193 225 216 215 201 236 241 65 110 127 137 135 129 118 100 83 72 61 45 37 32 30 29 29 27 24 23 18 14
225 231 249 225 251 203 232 222 202 181 174 204 237 205 220 217 200 212 211 231 45 89 100 129 137 136 130 127 117 103 88 77 64 50 42 39 38 33 30 26 24 18 14 13
222 233 234 259 304 244 218 199 183 169 166 232 235 204 248 246 248 228 49 56 113 134 149 134 134 133 136 129 120 106 92 81 70 61 51 46 40 33 28 25 20 14 13 12
Wind_Speed_850mb
32 36 38 39 43 43 27 9 8 9 6 22 8 12 11 7 18 10 17 15 22 25 28 29 32 22 16 5 13 14 13 12 21 32 26 4 23 27 27 20 18 19 22 32
32 33 31 36 36 43 42 17 12 9 6 11 9 9 14 11 17 13 8 14 16 23 26 21 19 28 5 10 8 6 3 10 16 22 30 11 16 18 17 25 25 30 27 30
31 31 30 28 29 34 24 12 7 5 2 3 15 15 16 10 3 18 15 17 23 25 26 27 16 10 9 7 15 10 8 20 22 24 29 14 21 22 23 27 20 31 34 46
27 25 23 26 26 25 16 5 7 8 6 7 14 12 18 19 12 6 11 10 9 13 12 22 25 24 15 14 21 16 16 25 26 34 39 37 34 33 34 36 38 37 42 49
26 25 22 19 22 17 7 17 11 7 18 9 14 6 6 13 6 8 11 16 18 18 12 23 31 25 24 15 12 21 13 16 23 30 34 32 36 36 37 37 37 44 41 44
24 23 22 19 15 13 10 8 7 12 3 7 10 6 5 7 13 15 23 20 17 22 22 26 32 31 31 27 23 19 14 12 19 25 28 20 26 22 18 16 21 28 31 40
22 25 22 20 13 10 7 11 14 6 12 6 8 15 17 16 15 21 27 27 24 15 24 32 40 40 38 38 36 39 24 25 20 17 26 32 5 9 9 12 22 32 39 36
27 25 27 22 16 14 7 12 10 7 11 19 21 10 14 22 15 21 25 20 7 14 11 8 17 15 20 30 39 35 29 26 10 9 17 31 18 10 15 23 34 28 28 38
28 29 34 27 19 14 11 10 7 8 5 3 14 17 14 14 11 16 11 9 15 10 4 5 9 4 7 8 9 17 22 25 16 17 7 14 11 11 17 25 25 29 39 43
36 41 43 29 21 16 16 11 15 9 7 19 10 7 10 10 9 10 18 10 4 7 4 5 10 8 5 9 11 13 15 16 24 21 13 14 15 19 28 21 23 57 59 60
34 30 24 24 24 19 23 17 18 12 12 30 24 24 20 17 12 6 9 15 2 7 5 8 5 6 2 4 5 10 15 12 13 14 7 10 22 23 15 24 45 52 56 58
26 20 20 19 21 20 26 24 15 18 24 19 22 32 35 29 25 10 6 8 4 1 5 6 6 6 6 7 5 6 6 3 4 3 5 11 18 22 18 31 43 46 55 63
20 19 21 23 23 24 29 28 19 18 13 35 16 17 19 24 36 32 12 11 14 7 7 7 6 7 7 4 8 9 5 2 8 9 2 22 30 20 37 43 45 50 53 62
24 22 24 32 29 27 34 32 18 15 7 4 5 3 6 16 23 26 28 13 14 6 8 10 7 7 10 5 8 11 3 5 7 11 14 26 9 44 43 43 46 52 55 62
27 27 23 21 28 31 39 37 19 16 11 6 20 40 23 33 25 29 29 35 18 8 8 9 8 9 7 14 14 15 3 5 3 4 18 19 34 40 38 45 50 54 59 66
27 26 21 20 22 28 40 12 22 31 21 4 7 4 10 14 10 20 27 35 23 11 8 11 12 3 8 5 6 9 13 5 5 13 25 25 31 32 39 44 48 49 55 59
23 21 15 17 22 32 31 10 8 10 18 5 9 5 9 4 7 18 18 22 15 14 9 11 16 10 11 7 10 10 9 2 9 16 19 27 30 39 40 40 41 45 48 53
19 18 18 25 36 43 28 18 8 20 10 7 6 7 9 14 9 9 18 14 18 19 9 11 18 11 14 7 11 12 2 8 11 17 22 23 29 31 36 38 41 46 51 57
21 24 25 40 28 16 15 13 12 11 11 5 7 6 1 7 5 9 20 18 9 8 7 8 10 11 9 1 12 8 8 12 17 19 18 24 28 32 36 39 41 44 52 55
17 35 12 10 12 15 25 14 11 10 9 11 9 16 8 7 3 11 8 8 4 5 13 12 8 6 15 12 9 5 7 11 14 17 24 30 33 35 38 39 39 40 46 50
40 15 8 15 27 16 8 7 9 11 8 13 14 22 12 8 5 3 8 4 6 6 9 8 5 7 11 11 8 6 6 8 11 15 19 25 28 30 34 37 36 39 43 48
21 14 25 24 10 7 6 7 10 8 7 13 7 8 10 4 5 6 5 5 7 7 11 7 5 8 17 15 9 8 8 8 12 16 21 25 25 26 29 32 35 38 40 44
18 7 10 9 10 9 10 14 9 8 11 10 8 5 9 10 12 6 7 10 7 7 4 4 6 24 17 13 12 11 9 9 12 16 20 24 25 27 30 31 35 35 39 44
7 9 8 8 9 10 10 9 2 4 11 14 15 7 8 13 11 9 7 5 8 7 7 7 13 23 20 16 13 9 10 11 14 16 19 23 26 28 30 32 33 36 43 46
5 7 8 13 13 4 3 7 7 6 4 5 8 9 14 8 6 7 7 8 8 4 6 8 25 25 22 18 13 12 11 13 15 17 19 22 24 26 29 32 32 34 38 43
6 10 8 9 9 8 14 16 9 10 3 7 10 5 6 11 6 10 12 4 2 6 8 25 25 25 22 17 14 14 13 14 15 17 19 20 23 25 26 28 33 36 36 40
8 9 19 15 5 5 5 7 6 17 10 4 7 9 6 4 5 5 2 5 11 30 29 30 27 24 21 19 17 14 14 14 15 16 18 19 20 21 26 31 33 34 38 37
Wind_Direction_850mb
333 341 344 345 345 347 4 298 264 351 346 250 225 289 31 22 288 292 312 293 293 290 284 281 274 258 221 141 306 280 287 278 260 259 265 323 290 299 297 271 247 244 268 273
326 331 340 345 349 353 353 307 292 327 306 281 295 85 292 258 292 316 306 290 287 295 294 288 284 272 267 273 273 305 317 251 271 267 226 177 256 250 247 267 271 257 269 277
317 323 331 337 343 347 346 300 282 139 353 23 319 333 286 286 132 292 306 288 297 292 277 264 263 268 179 230 264 60 314 270 269 276 300 280 278 261 257 270 255 267 268 281
314 319 322 326 332 344 345 313 77 343 322 76 329 305 302 288 333 287 301 281 323 331 278 306 258 264 242 235 236 245 245 265 272 274 282 287 284 275 272 263 265 268 278 282
312 320 309 312 321 330 312 326 342 316 283 299 297 168 31 313 297 309 309 293 348 313 292 298 300 316 311 257 283 250 229 266 267 265 264 274 266 267 263 264 267 271 292 306
311 313 305 300 317 343 322 324 293 290 215 220 264 5 284 293 270 279 259 284 321 291 312 308 299 289 266 269 285 286 280 263 274 278 294 289 266 266 279 266 314 312 298 308
292 302 300 298 288 300 296 306 302 320 274 251 302 295 295 301 294 280 287 281 283 296 313 302 277 252 250 250 249 249 259 269 284 281 298 267 348 90 353 323 312 313 308 324
273 292 290 285 281 269 262 292 293 299 285 324 297 263 279 303 281 265 280 287 309 314 309 287 265 229 233 230 224 229 229 250 257 240 264 298 231 55 15 340 311 326 354 330
267 288 280 269 266 274 237 254 264 270 280 252 351 313 310 294 312 295 264 269 291 231 299 263 264 261 227 169 166 234 230 226 234 277 247 282 75 63 351 324 290 353 334 330
282 279 272 261 256 253 241 245 234 230 246 290 298 248 291 299 294 274 291 317 295 195 253 252 263 255 228 181 191 185 184 207 222 237 251 271 44 354 320 286 337 337 335 327
287 275 243 241 243 249 241 226 260 231 232 275 274 260 246 262 255 266 357 280 274 182 234 253 286 266 223 288 211 180 190 204 206 240 243 260 15 345 359 335 329 325 324 320
275 261 242 230 234 251 240 249 247 257 238 259 275 266 254 239 239 240 221 309 274 248 275 271 259 274 220 245 257 260 241 267 257 279 244 304 350 347 344 345 329 325 321 318
252 263 260 245 245 254 239 240 254 264 273 299 260 289 256 232 216 234 208 228 232 213 231 290 286 275 274 249 262 260 182 241 253 314 314 353 337 8 351 336 326 323 324 321
243 260 264 254 252 248 249 236 249 236 256 288 295 74 172 194 200 214 233 242 207 231 257 249 255 268 285 253 268 275 185 184 284 299 327 327 329 345 333 328 326 326 327 324
253 260 276 256 223 231 238 230 243 244 238 287 297 291 279 241 251 230 215 221 238 259 272 244 245 260 270 265 272 273 66 316 306 278 347 338 317 322 326 327 329 330 329 330
254 261 275 241 242 217 209 212 255 243 233 277 291 23 241 172 218 220 208 218 222 215 239 275 267 225 274 279 268 264 80 31 310 317 322 319 312 319 329 329 332 331 334 336
252 256 249 239 204 203 185 191 171 149 190 238 274 267 153 263 204 185 202 202 203 208 256 259 267 242 230 276 249 106 117 347 328 310 319 320 333 329 333 336 335 337 337 340
232 235 231 218 201 196 202 224 237 159 190 235 267 273 205 175 174 169 186 181 205 210 230 245 251 228 227 245 143 120 49 345 325 338 327 323 331 336 341 342 345 343 343 344
227 235 206 186 183 189 215 206 199 210 191 236 230 249 84 183 220 209 185 199 207 189 231 251 252 229 213 109 118 103 31 345 342 335 340 348 347 347 348 348 349 345 343 348
222 182 145 158 177 166 131 143 163 205 224 226 249 232 247 157 205 203 177 172 197 227 220 219 226 231 124 111 94 64 357 355 359 1 360 356 353 352 351 351 350 348 347 350
175 162 142 131 137 140 169 167 207 180 228 216 230 233 228 160 219 219 214 207 217 236 189 212 230 159 119 147 122 80 41 37 27 11 360 357 353 353 351 353 354 354 353 355
184 172 131 144 167 170 201 209 167 224 244 181 215 197 201 222 206 225 233 249 233 245 174 211 194 122 140 139 120 96 83 56 31 18 9 5 5 3 0 359 358 359 358 359
181 165 142 160 172 200 221 193 187 205 197 147 167 163 169 201 200 220 232 231 223 159 208 209 87 141 140 142 134 112 84 59 40 33 25 23 21 18 15 11 7 6 7 5
184 160 164 227 184 230 210 215 275 101 121 154 169 170 191 200 189 235 234 226 213 223 221 126 118 127 139 130 126 110 78 62 53 44 34 29 28 26 24 24 17 16 14 13
182 206 221 212 228 104 88 225 192 163 147 164 178 212 192 193 225 216 215 201 236 241 65 110 127 137 135 129 118 100 83 72 61 45 37 32 30 29 29 27 24 23 18 14
225 231 249 225 251 203 232 222 202 181 174 204 237 205 220 217 200 212 211 231 45 89 100 129 137 136 130 127 117 103 88 77 64 50 42 39 38 33 30 26 24 18 14 13
222 233 234 259 304 244 218 199 183 169 166 232 235 204 248 246 248 228 49 56 113 134 149 134 134 133 136 129 120 106 92 81 70 61 51 46 40 33 28 25 20 14 13 12